[[{"header":{"parameterUnit":"m.s-1","parameterCategory":1,"la1":30.2991,"la2":30.254,"lo1":-89.0895,"lo2":-89.0444,"dy":0.0017,"dx":0.0017,"nx":28,"ny":28,"refTime":"2025-01-26T09:00:00:Z","depth":0,"parameterNumber":2,"parameterNumberName":"U-component_of_WINDS"},"data":[0,0,0,0,0,0,0,0,0,0,0,0,0,0,0,0,0,0,0,0,0,0,0,0,0,0,0,0,0,0,0,0,0,0,0,0,0,0,0,0,0,0,0,0,0,0,0,0,0,0,0,0,0,0,0,0,0,0,-0.9753,-0.9754,0,-0.9921,-0.9923,-0.9925,-1.0007,-1.0007,-1.0007,-1.0007,-1.0185,-1.019,-1.0194,0,0,0,0,0,0,0,0,0,0,0,0,0,-0.9506,-0.951,-0.9752,-0.9755,-0.9757,-0.9921,-0.9923,-0.9925,-1.0007,-1.0007,-1.0007,-1.0007,-1.0183,-1.0189,-1.0195,0,0,0,0,0,0,0,0,0,0,0,0,0,-0.9638,-0.9512,-0.9752,-0.9817,-0.9825,-0.992,-0.9923,-0.9926,-1.0007,-1.0007,-1.0007,-1.0007,-1.0182,-1.0189,-1.0196,-1.0241,0,0,-1.0217,-1.0221,0,0,0,0,0,0,0,0,-0.963,-0.9647,-0.9805,-0.9813,-0.9821,-0.9943,-0.9902,-1.0032,-1.0007,-0.9938,-1.0007,-1.0007,-1.0105,-1.0118,-1.015,-1.0249,-1.0257,-1.0218,-1.0222,-1.0226,-1.0228,0,0,0,0,0,0,0,-0.9621,-0.964,-0.9819,-0.9808,-0.9817,-0.984,-0.9858,-0.9927,-1.002,-0.9944,-0.995,-0.9969,-1.0109,-1.0143,-1.0155,-1.0259,-1.0218,-1.0224,-1.0229,-1.0231,-1.0405,-1.0405,0,0,0,0,0,0,-0.9601,-0.9632,-0.9814,-0.9824,-0.9724,-0.9844,-0.9865,-0.9904,-1.0019,-1.0037,-0.9969,-0.9972,-1.0131,-1.0147,-1.0162,-1.0223,-1.0225,-1.0232,-1.0236,-1.0404,-1.0405,-1.0405,0,0,0,0,0,0,-0.9595,-0.9616,-0.9807,-0.973,-0.9756,-0.9848,-0.9892,-0.9907,-0.9941,-1.0038,-1.0056,-0.9986,-1.0132,-1.0152,-1.022,-1.023,-1.0235,-1.0242,-1.0404,-1.0404,-1.0405,-1.0344,0,0,0,0,0,0,-0.9588,-0.9614,-0.9631,-0.973,-0.976,-0.9861,-0.9892,-0.9911,-0.9953,-0.9959,-1.0059,-1.0075,-1.0133,-1.0209,-1.0227,-1.024,-1.0247,-1.0404,-1.0404,-1.0405,-1.0346,-1.0342,-1.034,0,0,0,0,0,-0.9579,-0.9608,-0.9631,-0.9653,-0.9783,-0.9862,-0.9879,-0.9943,-0.9953,-0.9972,-1.0034,-1.0072,-1.0225,-1.0215,-1.0237,-1.0251,-1.0403,-1.0404,-1.0405,-1.0347,-1.0343,-1.034,0,0,0,0,0,0,-0.951,-0.9622,-0.9649,-0.9711,-0.9776,-0.9875,-0.9901,-0.9937,-1.0002,-1.0005,-1.0084,-1.0106,-1.0167,-1.0217,-1.0203,-1.0302,-1.0318,-1.0323,-1.0267,-1.0264,-1.0261,-1.0248,-1.0253,0,0,0,0,0,-0.9502,-0.9555,-0.9651,-0.9696,-0.9727,-0.9808,-0.9845,-0.9889,-0.996,-0.9988,-1.0056,-1.0124,-1.0188,-1.0229,-1.0293,-1.0353,-1.0377,-1.0374,-1.037,-1.0368,-1.0371,-1.0407,-1.0407,-1.0407,-1.0407,-1.0407,0,0,-0.9486,-0.9554,-0.9583,-0.9684,-0.974,-0.9794,-0.9831,-0.9888,-0.9929,-0.9998,-1.0066,-1.0118,-1.02,-1.0264,-1.0296,-1.0307,-1.0376,-1.0368,-1.0365,-1.0371,-1.0408,-1.0408,-1.0407,-1.0408,-1.0408,-1.0408,0,0,-0.9485,-0.9542,-0.9586,-0.964,-0.9722,-0.9776,-0.9786,-0.988,-0.9916,-0.9986,-1.0038,-1.009,-1.0198,-1.0254,-1.0297,-1.0317,-1.0354,-1.0335,-1.032,-1.0354,-1.0354,-1.0354,-1.0362,-1.0363,-1.0339,-1.0338,-1.0338,0,-0.9456,-0.9539,-0.9604,-0.9657,-0.9701,-0.9763,-0.9809,-0.9859,-0.9959,-0.9988,-0.9998,-1.0135,-1.0195,-1.0273,-1.0278,-1.031,-1.0326,-1.0325,-1.0348,-1.0349,-1.0351,-1.0359,-1.0361,-1.0336,-1.0336,-1.0336,-1.0336,0,-0.9499,-0.9555,-0.9581,-0.9674,-0.972,-0.9769,-0.9844,-0.9883,-0.9922,-0.9975,-1.0045,-1.0119,-1.0199,-1.0221,-1.0261,-1.0305,-1.0309,-1.0333,-1.0351,-1.0347,-1.0356,-1.0359,-1.0332,-1.0333,-1.0333,-1.0334,0,0,-0.9461,-0.9588,-0.9596,-0.9639,-0.9734,-0.978,-0.9832,-0.9909,-0.9941,-1.0008,-1.0055,-1.0144,-1.0166,-1.0215,-1.0261,-1.0291,-1.0302,-1.0311,-1.0314,-1.0307,-1.0356,-1.0338,-1.0341,-1.0327,-1.0328,-1.0329,-1.035,0,-0.9474,-0.9569,-0.9628,-0.97,-0.9753,-0.9813,-0.9859,-0.9923,-0.9973,-1.0027,-1.0084,-1.0146,-1.017,-1.02,-1.0232,-1.0294,-1.0313,-1.0293,-1.0373,-1.0375,-1.0351,-1.0345,-1.0327,-1.0343,-1.0353,-1.0354,-1.0355,0,-0.9502,-0.9565,-0.9641,-0.9729,-0.9754,-0.9794,-0.9868,-0.9919,-0.9993,-1.0028,-1.0081,-1.0128,-1.0187,-1.02,-1.0283,-1.0268,-1.0304,-1.034,-1.0342,-1.0353,-1.0365,-1.0357,-1.035,-1.0352,-1.0361,-1.036,-1.036,0,-0.9467,-0.9571,-0.963,-0.9664,-0.9769,-0.9796,-0.9841,-0.9915,-0.9957,-1.0023,-1.0051,-1.0123,-1.0163,-1.0219,-1.0284,-1.0287,-1.0361,-1.0379,-1.0393,-1.0392,-1.0407,-1.0405,-1.0406,-1.0429,-1.0429,-1.0429,-1.0429,0,-0.9476,-0.952,-0.9615,-0.9651,-0.9703,-0.9772,-0.9822,-0.9872,-0.9937,-0.9986,-1.0042,-1.0087,-1.017,-1.0225,-1.0277,-1.0339,-1.0357,-1.0387,-1.0401,-1.0383,-1.0379,-1.0408,-1.0409,-1.0429,-1.0429,-1.0429,-1.0429,0,-0.9446,-0.9511,-0.9579,-0.9672,-0.9696,-0.973,-0.9811,-0.9849,-0.9902,-0.9962,-0.9981,-1.0064,-1.0132,-1.0203,-1.0295,-1.033,-1.039,-1.0408,-1.0364,-1.0372,-1.0382,-1.038,-1.0403,-1.041,-1.0426,-1.0426,-1.0425,0,-0.9448,-0.9483,-0.9578,-0.9613,-0.9657,-0.9713,-0.9755,-0.9825,-0.9867,-0.9954,-0.9982,-1.0053,-1.0114,-1.022,-1.029,-1.0362,-1.0382,-1.0385,-1.0394,-1.0374,-1.0383,-1.0381,-1.0385,-1.0383,-1.0382,-1.0382,-1.0381,0,-0.9444,-0.9474,-0.9531,-0.96,-0.9648,-0.9707,-0.9767,-0.9794,-0.9875,-0.992,-0.9989,-1.0036,-1.0129,-1.02,-1.0279,-1.0328,-1.0369,-1.0378,-1.0385,-1.0367,-1.0341,-1.0356,-1.0357,-1.0377,-1.0378,-1.0378,-1.0378,-1.0378,-0.943,-0.9464,-0.9536,-0.9599,-0.9651,-0.9706,-0.9746,-0.9803,-0.9861,-0.9941,-0.9979,-1.0048,-1.0122,-1.0232,-1.028,-1.0336,-1.0348,-1.0358,-1.0361,-1.0362,-1.0358,-1.033,-1.0351,-1.0351,-1.0351,-1.0351,-1.0352,0,-0.943,-0.9478,-0.9535,-0.9616,-0.9666,-0.9697,-0.9766,-0.9805,-0.9865,-0.9929,-0.9987,-1.0067,-1.0135,-1.021,-1.0284,-1.0314,-1.0335,-1.0332,-1.0331,-1.0341,-1.0343,-1.033,-1.0314,-1.0314,-1.0314,-1.0314,-1.0314,-1.0314,-0.9435,-0.9494,-0.9532,-0.9618,-0.9667,-0.9733,-0.977,-0.9821,-0.9873,-0.9958,-1.0015,-1.0062,-1.0131,-1.021,-1.0275,-1.0296,-1.0321,-1.0312,-1.0338,-1.0338,-1.0341,-1.0344,-1.0332,-1.0316,-1.0316,-1.0331,-1.0331,-1.0332]},{"header":{"parameterUnit":"m.s-1","parameterCategory":1,"la1":30.2991,"la2":30.254,"lo1":-89.0895,"lo2":-89.0444,"dy":0.0017,"dx":0.0017,"nx":28,"ny":28,"refTime":"2025-01-26T09:00:00:Z","depth":0,"parameterNumber":3,"parameterNumberName":"V-component_of_WINDS"},"data":[0,0,0,0,0,0,0,0,0,0,0,0,0,0,0,0,0,0,0,0,0,0,0,0,0,0,0,0,0,0,0,0,0,0,0,0,0,0,0,0,0,0,0,0,0,0,0,0,0,0,0,0,0,0,0,0,0,0,3.981,3.981,0,3.9828,3.9828,3.9828,3.9802,3.9801,3.98,3.98,3.9819,3.982,3.9821,0,0,0,0,0,0,0,0,0,0,0,0,0,3.9755,3.9756,3.981,3.981,3.981,3.9828,3.9828,3.9828,3.9802,3.9801,3.98,3.9799,3.9818,3.982,3.9822,0,0,0,0,0,0,0,0,0,0,0,0,0,3.9777,3.9757,3.981,3.98,3.9799,3.9828,3.9828,3.9828,3.9803,3.9801,3.98,3.9799,3.9818,3.982,3.9822,3.9862,0,0,3.9828,3.9829,0,0,0,0,0,0,0,0,3.9776,3.9779,3.9801,3.98,3.98,3.9811,3.9816,3.984,3.9803,3.9801,3.98,3.9798,3.9817,3.9819,3.9826,3.9863,3.9864,3.9828,3.9829,3.983,3.9831,0,0,0,0,0,0,0,3.9774,3.9778,3.9817,3.9801,3.98,3.9795,3.9796,3.982,3.9817,3.9801,3.9799,3.9802,3.9817,3.9824,3.9826,3.9864,3.9828,3.983,3.9831,3.9832,3.9936,3.9937,0,0,0,0,0,0,3.9774,3.9777,3.9816,3.9817,3.9784,3.9797,3.9798,3.9809,3.9817,3.9816,3.9803,3.9801,3.9821,3.9824,3.9827,3.9875,3.983,3.9832,3.9833,3.9934,3.9936,3.9938,0,0,0,0,0,0,3.9773,3.9777,3.9816,3.9797,3.9801,3.9799,3.9811,3.981,3.9817,3.9818,3.9817,3.9811,3.982,3.9824,3.9854,3.9875,3.9833,3.9835,3.9933,3.9935,3.9937,3.9972,0,0,0,0,0,0,3.9771,3.9777,3.9792,3.9797,3.9802,3.9842,3.9812,3.9811,3.9821,3.9818,3.9825,3.9825,3.9819,3.9851,3.9856,3.9878,3.9837,3.9931,3.9934,3.9936,3.9969,3.9975,3.9981,0,0,0,0,0,3.9769,3.9801,3.9793,3.9798,3.9821,3.9843,3.9846,3.9839,3.9822,3.9838,3.9838,3.9825,3.9872,3.9854,3.9859,3.9882,3.9929,3.9933,3.9936,3.9966,3.9974,3.998,0,0,0,0,0,0,3.9799,3.9801,3.9792,3.9827,3.9835,3.9839,3.9858,3.9847,3.986,3.9857,3.9848,3.985,3.9882,3.9885,3.9864,3.9922,3.9898,3.9903,3.9919,3.9926,3.9932,3.9931,3.9838,0,0,0,0,0,3.9809,3.9827,3.9828,3.9858,3.9863,3.986,3.9869,3.9863,3.9871,3.9875,3.9877,3.9886,3.9903,3.9915,3.993,3.9969,3.9971,3.9987,3.9993,3.9998,4.0002,4.0024,4.0032,3.9949,3.9949,3.9949,0,0,3.9831,3.9835,3.9846,3.9864,3.987,3.9889,3.9863,3.9884,3.9899,3.9878,3.9907,3.9909,3.9918,3.9953,3.9968,3.9956,4.0026,4.0002,4.0006,4.0008,4.0029,4.0037,4.0044,3.9952,3.9951,3.9951,0,0,3.9881,3.9885,3.9911,3.9917,3.9926,3.9924,3.993,3.9936,3.9937,3.9965,3.995,3.9968,3.9997,4.0004,4.0012,4.0066,4.0054,4.0071,4.0102,4.0124,4.013,4.0136,4.0156,4.0164,4.0075,4.0075,4.0075,0,3.9907,3.9935,3.9926,3.9948,3.9957,3.9939,3.9966,3.9973,3.9987,3.9994,3.998,4.0017,4.0022,4.0059,4.0072,4.0078,4.0086,4.0071,4.013,4.0135,4.0141,4.016,4.0168,4.0077,4.0077,4.0077,4.0077,0,3.9967,3.9987,4.0007,4.0021,4.0032,4.0057,4.0052,4.0064,4.0057,4.0057,4.0087,4.0092,4.0109,4.0117,4.011,4.0153,4.0146,4.0131,4.0107,4.0151,4.0169,4.0176,4.008,4.008,4.0079,4.0079,0,0,4.0037,4.0045,4.0053,4.0059,4.0068,4.0083,4.0108,4.0124,4.0136,4.0146,4.0167,4.0192,4.0179,4.0188,4.0181,4.02,4.0244,4.0183,4.0183,4.0196,4.0294,4.0306,4.0315,4.0236,4.0237,4.0238,4.0293,0,4.0087,4.0129,4.0122,4.0163,4.0182,4.0165,4.0186,4.0194,4.0195,4.0211,4.0211,4.023,4.021,4.0216,4.0234,4.0235,4.0264,4.0231,4.0257,4.0258,4.0256,4.0324,4.0336,4.0388,4.03,4.0302,4.0302,0,4.0152,4.0165,4.0208,4.0214,4.0222,4.0241,4.0256,4.0272,4.0281,4.028,4.029,4.0281,4.0306,4.0281,4.0316,4.0294,4.0304,4.0306,4.0308,4.0311,4.0284,4.033,4.0404,4.0413,4.0313,4.0312,4.0312,0,4.02,4.0228,4.0257,4.0263,4.0271,4.0286,4.029,4.0297,4.0308,4.0321,4.0329,4.0344,4.0354,4.0367,4.0362,4.0344,4.0399,4.0373,4.04,4.04,4.0413,4.0413,4.0491,4.0418,4.0417,4.0417,4.0417,0,4.0259,4.0286,4.0279,4.0298,4.0328,4.0319,4.035,4.0352,4.0359,4.0378,4.0365,4.0383,4.0375,4.0394,4.039,4.0421,4.0425,4.0425,4.0424,4.0427,4.0428,4.0435,4.0432,4.0419,4.0419,4.0419,4.0418,0,4.0318,4.0314,4.0346,4.0351,4.0353,4.0375,4.038,4.0397,4.0397,4.0421,4.0426,4.0425,4.0446,4.0443,4.0465,4.0463,4.0502,4.0496,4.0499,4.0498,4.0526,4.0524,4.0613,4.0625,4.0542,4.0543,4.0543,0,4.0356,4.0377,4.0384,4.0396,4.0401,4.042,4.0431,4.0423,4.0435,4.0448,4.0464,4.0484,4.0499,4.0533,4.0535,4.0552,4.0548,4.0578,4.055,4.0553,4.055,4.0549,4.0552,4.0583,4.0584,4.0585,4.0586,0,4.0425,4.0422,4.0438,4.0454,4.0467,4.0479,4.049,4.0501,4.0494,4.0509,4.053,4.0542,4.0565,4.0585,4.0602,4.0607,4.0596,4.0594,4.0602,4.0606,4.0607,4.0608,4.0515,4.0592,4.0592,4.0591,4.0591,4.0591,4.0475,4.0493,4.0502,4.052,4.0528,4.0538,4.0556,4.0557,4.0574,4.0593,4.0587,4.0611,4.0621,4.0642,4.0649,4.0668,4.0658,4.0668,4.0671,4.0674,4.0678,4.0603,4.0671,4.0671,4.0671,4.0671,4.0671,0,4.0545,4.0549,4.0566,4.0582,4.0597,4.0585,4.0596,4.061,4.0631,4.0641,4.0656,4.0681,4.07,4.0704,4.0722,4.0737,4.0733,4.0743,4.0742,4.0744,4.0686,4.0678,4.0746,4.0746,4.0746,4.0746,4.0746,4.0746,4.0582,4.0613,4.0611,4.0645,4.065,4.0673,4.0681,4.0691,4.0699,4.0727,4.0743,4.0745,4.0752,4.0772,4.0789,4.079,4.0798,4.081,4.0809,4.0755,4.0748,4.0741,4.0733,4.0812,4.0812,4.0866,4.0866,4.0866]}]]